Miscellaneous Local Product
Issued by NWS Hastings, NE

Home | Current Version | Previous Version | Graphics & Text | Print | Product List | Glossary On
Versions: 1 2 3 4 5 6 7 8 9 10 11 12 13 14 15 16 17 18 19 20 21 22 23 24 25 26 27 28 29 30 31 32 33 34 35 36 37 38 39 40 41 42 43 44 45 46 47 48 49 50
411
AXUS43 KGID 222302
MISGRI

GID CWA HOURLY WEATHER ROUNDUP
NATIONAL WEATHER SERVICE HASTINGS NE
500 PM CST WED FEB 22 2017

NOTE: "FAIR" INDICATES FEW OR NO CLOUDS BELOW 12,000 FEET WITH NO
SIGNIFICANT WEATHER AND/OR OBSTRUCTIONS TO VISIBILITY.

...SOUTH CENTRAL NEBRASKA...

CITY           SKY/WX    TMP DP  RH WIND       PRES   REMARKS
GRAND ISLAND   SUNNY     67  28  23 N16       29.72R
HASTINGS       SUNNY     68  23  18 NW13      29.72R
KEARNEY        SUNNY     66  21  18 NW10      29.73S
ORD            SUNNY     63  29  27 N10       29.73R
YORK           SUNNY     66  30  26 NW13G21   29.70R
AURORA         SUNNY     67  29  23 NW16      29.71R
LEXINGTON      SUNNY     65  21  18 N8        29.74S
HOLDREGE       SUNNY     66  19  16 NW9       29.72F
HEBRON         CLOUDY    72  26  17 NW10      29.69R

...NEBRASKA PANHANDLE...

CITY           SKY/WX    TMP DP  RH WIND       PRES   REMARKS
CHADRON        SUNNY     53  22  29 NW14      29.77S
ALLIANCE       MOSUNNY   52  14  22 NW16G24   29.76S
SCOTTSBLUFF    PTSUNNY   53  15  22 NW13      29.78S
SIDNEY         SUNNY     56  15  20 N17       29.77F

...WESTERN AND NORTH CENTRAL NEBRASKA...

CITY           SKY/WX    TMP DP  RH WIND       PRES   REMARKS
VALENTINE      CLOUDY    57  22  25 N12G22    29.75S
AINSWORTH      CLOUDY    57  28  31 N14       29.76R
ONEILL         SUNNY     59  31  34 NW15      29.75R
BROKEN BOW     SUNNY     64  23  21 N8        29.73S
IMPERIAL       SUNNY     63  17  17 NE6       29.74F
NORTH PLATTE   SUNNY     64  19  17 NW10      29.75S
MCCOOK         SUNNY     66  24  20 N8        29.73F

...EASTERN NEBRASKA...

CITY           SKY/WX    TMP DP  RH WIND       PRES   REMARKS
NORFOLK        SUNNY     62  28  27 N22       29.70R
SO SIOUX CITY  SUNNY     64  37  36 NW17      29.67R
TEKAMAH        SUNNY     66  37  34 NW23G29   29.66R
COLUMBUS       SUNNY     64  32  29 NW17      29.71R
ALBION         SUNNY     64  28  26 N12       29.73R
OMAHA EPPLEY   MOSUNNY   70  38  31 N14       29.65R
OFFUTT AFB     SUNNY     71  35  27 N9        29.64R
MILLARD        SUNNY     73  35  25 NW13      29.66R
LINCOLN        SUNNY     73  27  18 N17       29.68R
NEBRASKA CITY  SUNNY     72  29  20 N13       29.65R
BEATRICE       MOSUNNY   72  37  28 N8        29.67R
FALLS CITY     CLOUDY    72  37  28 N6        29.63S

...NORTHERN KANSAS...

CITY           SKY/WX    TMP DP  RH WIND       PRES   REMARKS
GOODLAND       SUNNY     63  20  19 E5        29.74F
HILL CITY      MOSUNNY   72  23  16 N8        29.72F
NORTON         CLEAR     68  16  13 NW8G16    29.72F
PHILLIPSBURG   SUNNY     72  25  17 W9        29.71S
SMITH CENTER   SUNNY     72  25  17 NW8       29.71R
HAYS             N/A     72  30  21 NW5       29.71F
RUSSELL        CLOUDY    72  30  21 NW5       29.69F
CONCORDIA      CLOUDY    72  31  22 NW10      29.67S
SALINA         CLOUDY    75  34  22 W7        29.67F
TOPEKA         CLOUDY    73  38  27 W6        29.64R



USA.gov is the U.S. government's official web portal to all federal, state and local government web resources and services.